Location: Dugenta
(41.1333°N, 14.4500°E)
Time: 13:39:59
(UTC+00:00)

SL-16 R/B - Pass Details

Date: 03 March 2021
Orbit: 843 x 845 km, 71.0° (Epoch: 20 April)

Event Time Altitude Azimuth Distance (km) Brightness Sun altitude
Rises 17:45:22 0° 212° (SSW) 3,386 5.8 -10.2°
Reaches altitude 10° 17:47:50 10° 216° (SW) 2,455 5.1 -10.6°
Maximum altitude 17:53:24 61° 296° (WNW) 954 2.8 -11.7°
Drops below altitude 10° 17:59:02 10° 17° (NNE) 2,473 4.5 -12.8°
Sets 18:01:31 0° 21° (NNE) 3,412 5.2 -13.2°
